Weather History for FAGG - January, 2014

Change the Weather History Date:

Saturday, January 25, 2014

  Actual Average Record
Temperature  
Mean Temperature 66 °F -  
Max Temperature 71 °F 74 °F 77 °F (2015)
Min Temperature 60 °F 59 °F 60 °F (2014)
Growing Degree Days 16 (Base 50)    
Moisture  
Dew Point 58 °F    
Average Humidity 73    
Maximum Humidity 88    
Minimum Humidity 55    
Precipitation  
Precipitation 0.00 in - - ()
Sea Level Pressure  
Sea Level Pressure 30.03 in    
Wind  
Wind Speed 7 mph ()    
Max Wind Speed 12 mph    
Max Gust Speed -    
Visibility 7.6 miles    
Events      
Averages and records for this station are not official NWS values.
T = Trace of Precipitation, MM = Missing Value Source: Averaged Metar Reports

Daily Weather History Graph

Daily Weather History Graph

Search for Another Location

Airport or City:

Trip Planner

Search our weather history database for the weather conditions in past years. The results will help you decide how hot, cold, wet, or windy it might be!

Date:

Astronomy

Jan. 25, 2014 Rise Set
Actual Time 5:44 AM SAST 7:40 PM SAST
Civil Twilight 5:16 AM SAST 8:08 PM SAST
Nautical Twilight 4:43 AM SAST 8:41 PM SAST
Astronomical Twilight 4:07 AM SAST 9:17 PM SAST
Moon 12:18 AM SAST (1/25) 2:15 PM SAST (1/25)
Length of Visible Light 14h 51m
Length of Day
13h 55m
Last Quarter, 37% of the Moon is Illuminated
Jan 25
Last Quarter
Jan 30
New
Feb 6
First Quarter
Feb 15
Full
Feb 22
Last Quarter

Hourly Weather History & Observations

Time (SAST) Temp. Dew Point Humidity Pressure Visibility Wind Dir Wind Speed Gust Speed Precip Events Conditions
12:00 AM 64.4 °F 60.8 °F 88% 30.01 in 6.2 mi WNW 5.8 mph - N/A   Mostly Cloudy
1:00 AM 64.4 °F 59.0 °F 83% 30.01 in 6.2 mi WNW 6.9 mph - N/A   Mostly Cloudy
2:00 AM 64 °F 58 °F 75% 30.01 in 12 mi WNW 8.1 mph - -  
2:00 AM 64.4 °F 59.0 °F 83% 30.01 in 6.2 mi WNW 9.2 mph - N/A   Mostly Cloudy
3:00 AM 62.6 °F 57.2 °F 82% 30.01 in 6.2 mi WNW 8.1 mph - N/A   Scattered Clouds
4:00 AM 64.4 °F 57.2 °F 77% 30.01 in 6.2 mi WNW 9.2 mph - N/A   Mostly Cloudy
5:00 AM 62 °F 56 °F 73% 30.00 in 12 mi WNW 6.9 mph - -   Partly Cloudy
5:00 AM 60.8 °F 55.4 °F 82% 30.01 in 6.2 mi WNW 6.9 mph - N/A   Scattered Clouds
6:00 AM 60.8 °F 55.4 °F 82% 30.01 in 6.2 mi WNW 4.6 mph - N/A   Scattered Clouds
7:00 AM 62.6 °F 57.2 °F 82% 30.04 in 6.2 mi West 2.3 mph - N/A   Mostly Cloudy
8:00 AM 65 °F 58 °F 73% 30.05 in 12 mi West 8.1 mph - -   Mostly Cloudy
8:00 AM 66.2 °F 59.0 °F 78% 30.04 in 6.2 mi West 8.1 mph - N/A   Mostly Cloudy
9:00 AM 68.0 °F 57.2 °F 68% 30.04 in 6.2 mi WSW 10.4 mph - N/A   Scattered Clouds
10:00 AM 68.0 °F 59.0 °F 73% 30.04 in 6.2 mi SW 5.8 mph - N/A   Mostly Cloudy
11:00 AM 68 °F 60 °F 67% 30.04 in 12 mi South 11.5 mph - -   Mostly Cloudy
11:00 AM 68.0 °F 59.0 °F 73% 30.04 in 6.2 mi South 11.5 mph - N/A   Scattered Clouds
12:00 PM 66.2 °F 57.2 °F 73% 30.04 in 6.2 mi SSE 10.4 mph - N/A   Mostly Cloudy
1:00 PM 68.0 °F 57.2 °F 68% 30.04 in 6.2 mi SE 10.4 mph - N/A   Mostly Cloudy
2:00 PM 69 °F 58 °F 60% 30.05 in 12 mi SE 8.1 mph - -   Mostly Cloudy
2:00 PM 68.0 °F 59.0 °F 73% 30.04 in 6.2 mi SE 8.1 mph - N/A   Mostly Cloudy
3:00 PM 69.8 °F 59.0 °F 68% 30.04 in 6.2 mi SE 10.4 mph - N/A   Mostly Cloudy
4:00 PM 69.8 °F 57.2 °F 64% 30.01 in 6.2 mi SE 11.5 mph - N/A   Scattered Clouds
5:00 PM 69 °F 56 °F 55% 30.02 in 12 mi SE 10.4 mph - -   Mostly Cloudy
5:00 PM 69.8 °F 57.2 °F 64% 30.01 in 6.2 mi SE 10.4 mph - N/A   Mostly Cloudy
6:00 PM 69.8 °F 57.2 °F 64% 30.04 in 6.2 mi SE 10.4 mph - N/A   Mostly Cloudy
7:00 PM 68.0 °F 55.4 °F 64% 30.04 in 6.2 mi SE 9.2 mph - N/A   Mostly Cloudy
8:00 PM 66 °F 56 °F 62% 30.06 in 12 mi ESE 6.9 mph - -   Partly Cloudy
8:00 PM 66.2 °F 55.4 °F 68% 30.04 in 6.2 mi ESE 6.9 mph - N/A   Scattered Clouds
9:00 PM 64.4 °F 57.2 °F 77% 30.04 in 6.2 mi East 3.5 mph - N/A   Mostly Cloudy
10:00 PM 64.4 °F 57.2 °F 77% 30.06 in 6.2 mi East 3.5 mph - N/A   Scattered Clouds